Regional Weather Roundup
Issued by NWS

Home | Current Version | Previous Version | Text Only | Print | Product List | Glossary Off
Versions: 1 2 3 4 5 6 7 8 9 10 11 12 13 14 15 16 17 18 19 20 21 22 23 24 25 26 27 28 29 30 31 32 33 34 35 36 37 38 39 40 41 42 43 44 45 46 47 48

000
ASUS45 KSLC 031610
RWRUT

UTAH REGIONAL WEATHER ROUNDUP
NATIONAL WEATHER SERVICE SALT LAKE CITY UT
900 AM MST TUE MAR 03 2015

UTZ001>011-023>025-031700-

NORTHERN UTAH

CITY           SKY/WX    TMP DP  RH WIND       PRES   REMARKS
BRIGHAM CITY   CLOUDY    32  29  90 NW3       29.84R
DUGWAY         LGT SNOW  30  30  97 NW12      29.86R FOG     WCI  21
HILL AFB       SNOW      28  28 100 N16G22    29.81R VSB 1/2 WCI  17
LOGAN          CLOUDY    31  24  75 NW17      29.82R WCI  19
OGDEN          LGT SNOW  30  29  96 N14       29.81R FOG     WCI  19
PROVO AIRPORT  PTSUNNY   41  28  60 SE8       29.80R
SALT LAKE CITY SNOW      32  30  92 NW18G26   29.83R VSB 1/2 WCI  20
VERNAL         CLOUDY    29  26  89 CALM      29.79R
WENDOVER       CLOUDY    34  27  75 CALM      29.88R
HEBER CITY     LGT SNOW  32  28  86 CALM      29.74S
WEST JORDAN    CLOUDY    30  30 100 NW16G22   29.82R VSB 1/2 WCI  19

$$

UTZ012>022-026-027-031700-

SOUTHERN/CENTRAL UTAH

CITY           SKY/WX    TMP DP  RH WIND       PRES   REMARKS
BLANDING       CLOUDY    31  29  94 CALM      29.94S
BRYCE CANYON   SUNNY      4   2  91 SW3       29.83S
CEDAR CITY     CLOUDY    26  25  96 CALM      29.85R
DELTA          CLOUDY    32  30  90 S13       29.82R WCI  23
HANKSVILLE     SUNNY     37  30  75 NW5       29.85S WCI  34
MILFORD        PTSUNNY   32  27  81 S14       29.83R WCI  22
MOAB/CYNLANDS  SUNNY     39  28  64 CALM      29.81S
PRICE          MOSUNNY   30  25  81 E3        29.79R
ST GEORGE      CLOUDY    41  34  75 SE5       29.95R
KANAB          CLOUDY    34  32  93 S3        29.93R

$$

REGIONAL REPORTS     COLORADO/ARIZONA

CITY           SKY/WX    TMP DP  RH WIND       PRES   REMARKS
CRAIG, CO      CLOUDY    29  25  85 NE7       29.78S FOG     WCI  22
GRAND JUNCTION CLOUDY    37  30  75 NE5       29.81F WCI  33
RIFLE          CLOUDY    35  28  75 CALM      29.80F
MONTROSE       PTSUNNY   34  24  67 S5        29.85S WCI  30
CORTEZ         CLOUDY    35  29  78 NE3       29.88S
PAGE, AZ       NOT AVBL
GRAND CANYON   SUNNY     25  24  96 SW7       29.89S WCI  17
KINGMAN        SUNNY     41  35  79 CALM      29.93R
FLAGSTAFF      NOT AVBL

$$

REGIONAL REPORTS    NEVADA/IDAHO/WYOMING

CITY           SKY/WX    TMP DP  RH WIND       PRES   REMARKS
LAS VEGAS, NV  MOSUNNY   47  35  63 SW7       29.90R
ELY            CLOUDY    28  25  88 CALM      29.84S
ELKO           MOSUNNY   27  16  63 NW17      29.92R WCI  14
POCATELLO, ID  PTSUNNY   22  17  81 NE12      29.89S WCI  10
BURLEY         LGT SNOW  27  20  75 W20G28    29.87R WCI  13
EVANSTON, WY   HVY SNOW  23  21  92 NW13G25   29.70R VSB<1/4 WCI  11
ROCK SPRINGS   LGT SNOW  14  11  87 NE13      29.74S VSB 3/4 WCI   0
KEMMERER       LGT SNOW  25  23  93 NW13      29.69S WCI  13

$$


USA.gov is the U.S. government's official web portal to all federal, state and local government web resources and services.